Change the Weather History Date:

Sunday, March 10, 2013

  Actual Average Record
Temperature  
Mean Temperature 28 °F -  
Max Temperature 41 °F 37 °F 74 °F (2012)
Min Temperature 16 °F 18 °F -9 °F (1998)
Degree Days  
Heating Degree Days 36    
Moisture  
Dew Point 11 °F    
Average Humidity 55    
Maximum Humidity 86    
Minimum Humidity 22    
Precipitation  
Precipitation 0.00 in - - ()
Sea Level Pressure  
Sea Level Pressure 30.21 in    
Wind  
Wind Speed 16 mph (North)    
Max Wind Speed 26 mph    
Max Gust Speed 31 mph    
Visibility 10 miles    
Events      
Averages and records for this station are not official NWS values.
T = Trace of Precipitation, MM = Missing Value Source: NWS Daily Summary

Daily Weather History Graph

Daily Weather History Graph

Search for Another Location

Airport or City:

Trip Planner

Search our weather history database for the weather conditions in past years. The results will help you decide how hot, cold, wet, or windy it might be!

Date:

Astronomy

Mar. 10, 2013 Rise Set
Actual Time 7:13 AM MDT 6:52 PM MDT
Civil Twilight 6:44 AM MDT 7:21 PM MDT
Nautical Twilight 6:10 AM MDT 7:55 PM MDT
Astronomical Twilight 5:37 AM MDT 8:29 PM MDT
Moon 6:15 AM MDT (3/10) 6:02 PM MDT (3/10)
Length of Visible Light 12h 37m
Length of Day
11h 39m
Waning Crescent, 1% of the Moon is Illuminated
Mar 10
Waning Crescent
Mar 11
New
Mar 19
First Quarter
Mar 27
Full
Apr 2
Last Quarter

Hourly Weather History & Observations

Time (MDT) Temp. Windchill Dew Point Humidity Pressure Visibility Wind Dir Wind Speed Gust Speed Precip Events Conditions
12:55 AM 25.3 °F 9.7 °F 18.1 °F 74% 30.18 in 10.0 mi North 25.3 mph - N/A   Mostly Cloudy
1:55 AM 23.7 °F 9.7 °F 15.6 °F 71% 30.19 in 10.0 mi NNW 18.4 mph - N/A   Overcast
3:55 AM 23.5 °F 9.4 °F 17.2 °F 77% 30.20 in 10.0 mi North 18.4 mph - N/A   Overcast
4:51 AM 19.4 °F 6.6 °F 15.8 °F 86% 30.25 in 10.0 mi North 12.7 mph - N/A   Mostly Cloudy
4:53 AM 19.4 °F 6.0 °F 15.8 °F 86% 30.25 in 10.0 mi North 13.8 mph - N/A   Mostly Cloudy
4:55 AM 19.6 °F 6.8 °F 14.9 °F 82% 30.25 in 10.0 mi North 12.7 mph - N/A   Mostly Cloudy
5:55 AM 18.5 °F 8.4 °F 14.5 °F 85% 30.28 in 10.0 mi North 8.1 mph - N/A   Clear
6:55 AM 18.5 °F 7.5 °F 14.7 °F 85% 30.30 in 10.0 mi North 9.2 mph - N/A   Partly Cloudy
7:55 AM 16.7 °F 4.5 °F 13.3 °F 86% 30.32 in 10.0 mi North 10.4 mph - N/A   Clear
8:55 AM 21.9 °F 9.8 °F 16.7 °F 80% 30.32 in 10.0 mi North 12.7 mph - N/A   Clear
9:30 AM 24.8 °F 10.3 °F 17.6 °F 74% 30.31 in 10.0 mi NNW 20.7 mph 27.6 mph N/A   Mostly Cloudy
9:34 AM 24.8 °F 9.6 °F 17.6 °F 74% 30.30 in 10.0 mi NNW 23.0 mph 27.6 mph N/A   Mostly Cloudy
9:36 AM 24.8 °F 8.7 °F 17.6 °F 74% 30.30 in 10.0 mi NNW 26.5 mph - N/A   Mostly Cloudy
9:38 AM 26.6 °F 11.7 °F 17.6 °F 69% 30.30 in 10.0 mi NNW 24.2 mph 27.6 mph N/A   Mostly Cloudy
9:55 AM 27.3 °F 12.7 °F 14.4 °F 58% 30.30 in 10.0 mi North 24.2 mph - N/A   Partly Cloudy
10:55 AM 29.3 °F 15.6 °F 12.7 °F 50% 30.28 in 10.0 mi North 23.0 mph 31.1 mph N/A   Clear
11:55 AM 32.9 °F 21.0 °F 11.3 °F 41% 30.25 in 10.0 mi North 20.7 mph 28.8 mph N/A   Clear
12:55 PM 35.4 °F 24.0 °F 7.2 °F 31% 30.22 in 10.0 mi North 21.9 mph 29.9 mph N/A   Clear
1:55 PM 38.1 °F 27.9 °F 7.0 °F 27% 30.19 in 10.0 mi North 20.7 mph 26.5 mph N/A   Clear
2:55 PM 40.3 °F 31.6 °F 5.5 °F 24% 30.17 in 10.0 mi North 17.3 mph 21.9 mph N/A   Clear
3:55 PM 41.5 °F 34.2 °F 5.5 °F 23% 30.14 in 10.0 mi NNE 13.8 mph - N/A   Clear
4:55 PM 41.9 °F 34.0 °F 5.7 °F 22% 30.14 in 10.0 mi North 16.1 mph - N/A   Clear
5:55 PM 41.5 °F 35.4 °F 5.4 °F 22% 30.14 in 10.0 mi NNE 10.4 mph - N/A   Clear
6:55 PM 36.1 °F 32.3 °F 6.1 °F 29% 30.15 in 10.0 mi East 4.6 mph - N/A   Clear
7:55 PM 30.4 °F 25.6 °F 4.5 °F 33% 30.16 in 10.0 mi SE 4.6 mph - N/A   Clear
8:55 PM 27.5 °F 21.1 °F 3.9 °F 37% 30.14 in 10.0 mi South 5.8 mph - N/A   Clear
9:55 PM 27.1 °F 23.2 °F 4.3 °F 38% 30.11 in 10.0 mi South 3.5 mph - N/A   Clear
10:55 PM 29.5 °F - 4.5 °F 35% 30.08 in 10.0 mi Calm Calm - N/A   Overcast
11:55 PM 30.4 °F 26.9 °F 7.5 °F 38% 30.03 in 10.0 mi SSE 3.5 mph - N/A   Overcast
12:55 AM 30.7 °F 27.3 °F 6.6 °F 36% 29.99 in 10.0 mi SW 3.5 mph - N/A   Overcast